* Astronomy

Members Login
Username 
 
Password 
    Remember Me  
Post Info TOPIC: Pegasus Rocket Body Re-entry


L

Posts: 131433
Date:
RE: Pegasus Rocket Body Re-entry
Permalink  
 


Update:
The Pegasus Rocket Body re-entered the Earths atmosphere on the 31st January, 2012 @ 20:01 GMT ± 15 minutes

Inclination: 97.68°
Revolution Number: 38308
Predicted Location: 5.7°S, 22.6°E

__________________


L

Posts: 131433
Date:
Permalink  
 

Update:
 The Pegasus Rocket Body is scheduled to re-enter the Earths atmosphere on the 31st January, 2012 @ 20:01 GMT ± 3 hours

PEGASUS RB
1 28643U 05014B   12031.61839431  .11452377  25751-5  36401-3 0  2237
2 28643 097.6823 272.8423 0005288 029.3634 331.1580 16.44659588383054

Period:       88.39 minutes
Inclination: 97.68°
Apogee:     200 km
Perigee:     190 km
Revolution Number: 38308
Predicted Location:  5.7°S, 22.6°E



__________________


L

Posts: 131433
Date:
Permalink  
 

Update:
 The Pegasus Rocket Body is scheduled to re-enter the Earths atmosphere on the 31st January, 2012 @ 20:44 GMT ± 7 hours

PEGASUS RB
1 28643U 05014B   12031.37503364  .07656712  26243-5  68099-3 0  2209
2 28643 097.6846 272.5440 0003148 053.3655 309.7159 16.39252693383017

Period:       88.52 minutes
Inclination: 97.69°
Apogee:     207 km
Perigee:     195 km
Revolution Number: 38309
Predicted Location:  0.5°N, 192.7°E



__________________


L

Posts: 131433
Date:
Permalink  
 

Update:
 The Pegasus Rocket Body is scheduled to re-enter the Earths atmosphere on the 31st January, 2012 @ 22:49 GMT ± 48 hours

PEGASUS RB
1 28643U 05014B   12029.65680796  .01889394  26229-5  64738-3 0  2121
2 28643 097.6912 270.4854 0009731 063.0091 298.4488 16.25380196382735

Period:       88.85 minutes
Inclination: 97.69°
Apogee:     225 km
Perigee:     210 km
Revolution Number: 38310
Predicted Location:  25.6°N, 345.2°E



__________________


L

Posts: 131433
Date:
Permalink  
 

Update:
 The Pegasus Rocket Body is scheduled to re-enter the Earths atmosphere on the 3rd February, 2012 @ --:-- GMT ± - hours

PEGASUS RB
1 28643U 05014B   12026.44444479  .01073193  25671-5  78487-3 0  1982
2 28643 097.6938 266.6869 0014969 065.8462 294.3717 16.15419212382211

Period:       89.31 minutes
Inclination: 97.69°
Apogee:     251 km
Perigee:     230 km
Revolution Number: -
Predicted Location:  -



__________________


L

Posts: 131433
Date:
Permalink  
 

Update:
 The Pegasus Rocket Body is scheduled to re-enter the Earths atmosphere on the 3rd February, 2012 @ --:-- GMT ± - hours

PEGASUS RB
1 28643U 05014B   12024.21111083  .00974077  57089-3  97149-3 0  1888
2 28643 097.6946 264.0739 0016257 076.9913 283.2695 16.11014846381855

Period:       89.46 minutes
Inclination: 97.69°
Apogee:     259 km
Perigee:     237 km
Revolution Number: -
Predicted Location:  -



__________________


L

Posts: 131433
Date:
Permalink  
 

Update:
 The Pegasus Rocket Body is scheduled to re-enter the Earths atmosphere on the 24th January, 2012 @ --:-- GMT ± - hours

PEGASUS RB
1 28643U 05014B   12021.53628475  .00592361  17554-3  77295-3 0  1805
2 28643 097.6991 260.9562 0018318 082.1344 278.2016 16.06658498381426

Period:       89.46 minutes
Inclination: 97.70°
Apogee:     259 km
Perigee:     237 km
Revolution Number: -
Predicted Location:  -



__________________


L

Posts: 131433
Date:
Permalink  
 

Update:
 The Pegasus Rocket Body is scheduled to re-enter the Earths atmosphere on the 24th January, 2012 @ --:-- GMT ± - hours

PEGASUS RB
1 28643U 05014B   12021.90992289 +.00622841 +19696-3 +78930-3 0 01828
2 28643 097.6989 261.3917 0018161 083.0311 277.3071 16.07136018381489

Period:       89.60 minutes
Inclination: 97.70°
Apogee:     267 km
Perigee:     243 km
Revolution Number: -
Predicted Location:  -



__________________


L

Posts: 131433
Date:
Permalink  
 

Update:
 The Pegasus Rocket Body is scheduled to re-enter the Earths atmosphere on the 24th January, 2012 @ --:-- GMT ± - hours

PEGASUS RB
1 28643U 05014B   12020.22772020  .00532456  13680-3  76025-3 0  1766
2 28643 097.7002 259.4394 0018948 087.7476 272.5969 16.05169094381211

Period:       89.86 minutes
Inclination: 97.70°
Apogee:     280 km
Perigee:     255 km
Revolution Number: -
Predicted Location:  -



__________________


L

Posts: 131433
Date:
Permalink  
 

Update:
 The Pegasus Rocket Body is scheduled to re-enter the Earths atmosphere on the 22nd January, 2012 @ --:-- GMT ± - hours

PEGASUS RB
1 28643U 05014B   12010.91519750 +.00332155 +47202-4 +72707-3 0 01473
2 28643 097.7142 248.7022 0020308 120.2521 240.0742 15.97783634379726

Period:       90.10 minutes
Inclination: 97.71°
Apogee:     293 km
Perigee:     266 km
Revolution Number: -
Predicted Location:  -



__________________
1 2  >  Last»  | Page of 2  sorted by
 
Quick Reply

Please log in to post quick replies.



Create your own FREE Forum
Report Abuse
Powered by ActiveBoard